{"data":{"norad_id":62975,"intl_designator":"2025-030E","name":"HULIANWANG DIGUI-15","alt_names":[],"object_type":"PAYLOAD","status":"ACTIVE","operator":null,"country":"PRC","launch_date":"2025-02-11","launch_site_code":"WSC","launch_vehicle":null,"mission":null,"orbit_class":"UNKNOWN","rcs_meters":null,"size_class":null,"mass_kg":null,"dimensions":null,"purposes":[],"wikipedia_slug":null,"has_3d_model":false,"image_url":null,"decayed_at":null,"tle_current":{"epoch":"2026-09-22T21:02:29.588640Z","epoch_age_seconds":110262,"freshness":"FRESH","line1":"1 62975U 25030E   26265.87673135 -.00000097  00000+0  57372-4 0  9994","line2":"2 62975  50.0017 245.3752 0000456  48.9096 311.1816 13.29327530 78857","mean_motion":13.2932753,"eccentricity":4.56e-5,"inclination_deg":50.0017,"raan_deg":245.3752,"arg_perigee_deg":48.9096,"mean_anomaly_deg":311.1816,"bstar":5.7372e-5,"rev_number":7885,"period_min":108.32544783,"perigee_km":1148.9575448422,"apogee_km":1149.6440471692,"semimajor_km":7527.4377960057,"source":"CELESTRAK","updated_at":"2026-09-23T09:00:21.736113Z"}}}